• In Uzbekistan
  • List of Countries
  • For 7 days
  • Water Temperature
  • Satellite Maps
  • Weather Map
  • Weather Widgets
  • user-avatar
    Login

    Hourly Weather Sassandra

    Today, 19 October, Thursday

    Time Temperature Precipitation Wind Pressure Humidity
    00:00 +27°C° 0 mm 1 mps 759 mmHg 92%
    01:00 +26°C° 0.1 mm 1 mps 758 mmHg 93%
    02:00 +26°C° 0.1 mm 1 mps 758 mmHg 93%
    03:00 +26°C° 0.1 mm 1 mps 758 mmHg 93%
    04:00 +26°C° 0.2 mm 1 mps 758 mmHg 92%
    05:00 +27°C° 0.2 mm 1 mps 758 mmHg 92%
    06:00 +27°C° 0 mm 1 mps 759 mmHg 89%
    07:00 +28°C° 0.4 mm 1 mps 759 mmHg 83%
    08:00 +30°C° 0.4 mm 2 mps 759 mmHg 77%
    09:00 +31°C° 0.4 mm 2 mps 759 mmHg 70%
    10:00 +31°C° 1.5 mm 2 mps 759 mmHg 70%
    11:00 +32°C° 1.5 mm 2 mps 758 mmHg 70%
    12:00 +33°C° 0 mm 3 mps 758 mmHg 69%
    13:00 +33°C° 1.2 mm 3 mps 758 mmHg 71%
    14:00 +31°C° 1.2 mm 3 mps 757 mmHg 73%
    15:00 +31°C° 1.2 mm 3 mps 757 mmHg 75%
    16:00 +30°C° 0.3 mm 3 mps 757 mmHg 79%
    17:00 +29°C° 0.3 mm 3 mps 758 mmHg 83%
    18:00 +28°C° 0.3 mm 2 mps 758 mmHg 87%
    19:00 +28°C° 0 mm 2 mps 758 mmHg 88%
    20:00 +27°C° 0 mm 2 mps 759 mmHg 89%
    21:00 +27°C° 0 mm 2 mps 759 mmHg 91%
    22:00 +27°C° 0 mm 2 mps 759 mmHg 91%
    23:00 +27°C° 0 mm 2 mps 759 mmHg 92%

    Tomorrow, 20 October, Friday

    Time Temperature Precipitation Wind Pressure Humidity
    00:00 +27°C° 0 mm 2 mps 759 mmHg 92%
    01:00 +27°C° 0 mm 2 mps 758 mmHg 93%
    02:00 +26°C° 0 mm 2 mps 758 mmHg 93%
    03:00 +26°C° 0 mm 2 mps 757 mmHg 94%
    04:00 +26°C° 0 mm 2 mps 758 mmHg 93%
    05:00 +27°C° 0 mm 2 mps 758 mmHg 93%
    06:00 +27°C° 0 mm 2 mps 758 mmHg 93%
    07:00 +28°C° 0 mm 2 mps 758 mmHg 87%
    08:00 +29°C° 0 mm 2 mps 759 mmHg 80%
    09:00 +31°C° 0 mm 2 mps 759 mmHg 74%
    10:00 +31°C° 0.1 mm 3 mps 759 mmHg 72%
    11:00 +33°C° 0.1 mm 3 mps 758 mmHg 70%
    12:00 +33°C° 0.1 mm 3 mps 758 mmHg 68%
    13:00 +33°C° 0.5 mm 3 mps 757 mmHg 71%
    14:00 +31°C° 0.5 mm 3 mps 756 mmHg 74%
    15:00 +32°C° 0.5 mm 4 mps 756 mmHg 77%
    16:00 +30°C° 0.2 mm 3 mps 756 mmHg 80%
    17:00 +29°C° 0.2 mm 3 mps 757 mmHg 84%
    18:00 +28°C° 0.2 mm 3 mps 757 mmHg 88%
    19:00 +28°C° 0 mm 3 mps 758 mmHg 89%
    20:00 +28°C° 0 mm 3 mps 759 mmHg 90%
    21:00 +27°C° 0 mm 3 mps 760 mmHg 91%
    22:00 +27°C° 0.1 mm 3 mps 759 mmHg 91%
    23:00 +27°C° 0.1 mm 2 mps 759 mmHg 91%

    Day after tomorrow, 21 October, Saturday

    Time Temperature Precipitation Wind Pressure Humidity
    00:00 +27°C° 0.1 mm 2 mps 759 mmHg 92%
    01:00 +27°C° 0 mm 2 mps 759 mmHg 92%
    02:00 +27°C° 0 mm 2 mps 758 mmHg 92%
    03:00 +27°C° 0 mm 2 mps 758 mmHg 92%
    04:00 +27°C° 0.2 mm 2 mps 758 mmHg 91%
    05:00 +27°C° 0.2 mm 2 mps 758 mmHg 91%
    06:00 +27°C° 0.2 mm 2 mps 759 mmHg 91%
    07:00 +28°C° 0.1 mm 2 mps 759 mmHg 85%
    08:00 +30°C° 0.1 mm 3 mps 759 mmHg 79%
    09:00 +31°C° 0.1 mm 3 mps 760 mmHg 73%
    10:00 +31°C° 0.2 mm 3 mps 759 mmHg 73%
    11:00 +31°C° 0.2 mm 3 mps 758 mmHg 73%
    12:00 +31°C° 0.2 mm 3 mps 758 mmHg 73%
    13:00 +31°C° 0.5 mm 3 mps 757 mmHg 75%
    14:00 +30°C° 0.5 mm 4 mps 757 mmHg 78%
    15:00 +30°C° 0.5 mm 4 mps 756 mmHg 81%
    16:00 +29°C° 0.2 mm 4 mps 757 mmHg 84%
    17:00 +28°C° 0.2 mm 3 mps 757 mmHg 87%
    18:00 +28°C° 0.2 mm 3 mps 758 mmHg 90%
    19:00 +28°C° 0 mm 3 mps 758 mmHg 91%
    20:00 +27°C° 0 mm 3 mps 759 mmHg 92%
    21:00 +27°C° 0 mm 3 mps 760 mmHg 92%
    22:00 +27°C° 0 mm 3 mps 759 mmHg 93%
    23:00 +27°C° 0 mm 2 mps 759 mmHg 93%

    22 October, Sunday

    Time Temperature Precipitation Wind Pressure Humidity
    00:00 +27°C° 0 mm 2 mps 759 mmHg 94%
    01:00 +27°C° 0 mm 2 mps 758 mmHg 94%
    02:00 +27°C° 0 mm 2 mps 758 mmHg 94%
    03:00 +27°C° 0 mm 3 mps 757 mmHg 94%
    04:00 +27°C° 0 mm 2 mps 758 mmHg 94%
    05:00 +27°C° 0 mm 2 mps 758 mmHg 94%
    06:00 +27°C° 0 mm 2 mps 759 mmHg 93%
    07:00 +28°C° 0.3 mm 2 mps 759 mmHg 88%
    08:00 +29°C° 0.3 mm 2 mps 759 mmHg 84%
    09:00 +30°C° 0.3 mm 2 mps 760 mmHg 79%
    10:00 +30°C° 0.2 mm 3 mps 759 mmHg 77%
    11:00 +31°C° 0.2 mm 3 mps 758 mmHg 76%
    12:00 +31°C° 0.2 mm 3 mps 758 mmHg 74%
    13:00 +30°C° 0.5 mm 3 mps 757 mmHg 76%
    14:00 +30°C° 0.5 mm 3 mps 757 mmHg 77%
    15:00 +30°C° 0.5 mm 3 mps 756 mmHg 79%
    16:00 +29°C° 0.3 mm 3 mps 757 mmHg 82%
    17:00 +28°C° 0.3 mm 3 mps 757 mmHg 86%
    18:00 +28°C° 0.3 mm 3 mps 757 mmHg 89%
    19:00 +27°C° 0 mm 2 mps 758 mmHg 90%
    20:00 +27°C° 0 mm 2 mps 759 mmHg 91%
    21:00 +27°C° 0 mm 2 mps 759 mmHg 92%
    22:00 +27°C° 0 mm 2 mps 759 mmHg 93%
    23:00 +27°C° 0 mm 2 mps 759 mmHg 93%

    23 October, Monday

    Time Temperature Precipitation Wind Pressure Humidity
    00:00 +27°C° 0 mm 2 mps 758 mmHg 94%
    01:00 +27°C° 0 mm 2 mps 758 mmHg 94%
    02:00 +27°C° 0 mm 2 mps 758 mmHg 94%
    03:00 +27°C° 0 mm 2 mps 757 mmHg 94%
    04:00 +27°C° 0 mm 2 mps 758 mmHg 94%
    05:00 +27°C° 0 mm 2 mps 758 mmHg 93%
    06:00 +27°C° 0 mm 2 mps 758 mmHg 93%
    07:00 +28°C° 0 mm 2 mps 758 mmHg 87%
    08:00 +29°C° 0 mm 2 mps 759 mmHg 81%
    09:00 +31°C° 0 mm 2 mps 759 mmHg 74%
    10:00 +31°C° 0.1 mm 3 mps 758 mmHg 73%
    11:00 +33°C° 0.1 mm 3 mps 757 mmHg 71%
    12:00 +33°C° 0.1 mm 3 mps 757 mmHg 69%
    13:00 +33°C° 0.4 mm 3 mps 756 mmHg 71%
    14:00 +31°C° 0.4 mm 3 mps 756 mmHg 72%
    15:00 +32°C° 0.4 mm 4 mps 755 mmHg 73%
    16:00 +30°C° 0.2 mm 3 mps 756 mmHg 78%
    17:00 +29°C° 0.2 mm 3 mps 756 mmHg 83%
    18:00 +28°C° 0.2 mm 3 mps 757 mmHg 88%
    19:00 +28°C° 0 mm 2 mps 757 mmHg 89%
    20:00 +28°C° 0 mm 2 mps 758 mmHg 90%
    21:00 +28°C° 0 mm 2 mps 758 mmHg 91%
    22:00 +27°C° 0 mm 2 mps 758 mmHg 91%
    23:00 +27°C° 0 mm 2 mps 757 mmHg 92%

    24 October, Tuesday

    Time Temperature Precipitation Wind Pressure Humidity
    00:00 +27°C° 0 mm 2 mps 757 mmHg 93%
    01:00 +27°C° 0.1 mm 2 mps 757 mmHg 93%
    02:00 +27°C° 0.1 mm 2 mps 756 mmHg 93%
    03:00 +27°C° 0.1 mm 2 mps 756 mmHg 93%
    04:00 +27°C° 0.1 mm 2 mps 756 mmHg 93%
    05:00 +27°C° 0.1 mm 2 mps 757 mmHg 93%
    06:00 +27°C° 0.1 mm 2 mps 757 mmHg 93%
    07:00 +28°C° 0 mm 2 mps 757 mmHg 89%
    08:00 +28°C° 0 mm 2 mps 758 mmHg 86%
    09:00 +29°C° 0 mm 2 mps 758 mmHg 83%
    10:00 +30°C° 0 mm 2 mps 757 mmHg 77%
    11:00 +31°C° 0 mm 2 mps 757 mmHg 71%
    12:00 +32°C° 0 mm 2 mps 756 mmHg 65%
    13:00 +32°C° 0.3 mm 2 mps 756 mmHg 67%
    14:00 +33°C° 0.3 mm 3 mps 755 mmHg 69%
    15:00 +31°C° 0.3 mm 3 mps 755 mmHg 72%
    16:00 +30°C° 0.1 mm 3 mps 756 mmHg 76%
    17:00 +29°C° 0.1 mm 3 mps 756 mmHg 81%
    18:00 +28°C° 0.1 mm 2 mps 756 mmHg 85%
    19:00 +28°C° 0 mm 2 mps 757 mmHg 87%
    20:00 +28°C° 0 mm 2 mps 757 mmHg 88%
    21:00 +28°C° 0 mm 2 mps 758 mmHg 90%
    22:00 +28°C° 0 mm 2 mps 757 mmHg 91%
    23:00 +27°C° 0 mm 2 mps 757 mmHg 92%
    Show more